Weather History for KDRO - February, 2013

Change the Weather History Date:

Thursday, February 28, 2013

  Actual Average Record
Temperature  
Mean Temperature 26 °F 33 °F  
Max Temperature 43 °F 47 °F 67 °F (1972)
Min Temperature 9 °F 19 °F 1 °F (1987)
Degree Days  
Heating Degree Days 39 32  
Month to date heating degree days 1109 1021  
Since 1 July heating degree days 5346 5175  
Cooling Degree Days 0 0  
Month to date cooling degree days 0 0  
Year to date cooling degree days 0 0  
Moisture  
Dew Point 9 °F    
Average Humidity 55    
Maximum Humidity 83    
Minimum Humidity 27    
Precipitation  
Precipitation 0.00 in 0.04 in 0.57 in (1983)
Month to date precipitation 0.47 1.16  
Year to date precipitation 2.21 2.28  
Sea Level Pressure  
Sea Level Pressure 30.37 in    
Wind  
Wind Speed 6 mph (WSW)    
Max Wind Speed 22 mph    
Max Gust Speed 26 mph    
Visibility 10 miles    
Events      
T = Trace of Precipitation, MM = Missing Value Source: NWS Daily Summary

Daily Weather History Graph

Daily Weather History Graph

Search for Another Location

Airport or City:

Trip Planner

Search our weather history database for the weather conditions in past years. The results will help you decide how hot, cold, wet, or windy it might be!

Date:

Astronomy

Feb. 28, 2013 Rise Set
Actual Time 6:43 AM MST 6:04 PM MST
Civil Twilight 6:16 AM MST 6:30 PM MST
Nautical Twilight 5:46 AM MST 7:00 PM MST
Astronomical Twilight 5:16 AM MST 7:30 PM MST
Moon 9:28 PM MST (2/28) 7:59 AM MST (2/28)
Length of Visible Light 12h 13m
Length of Day
11h 21m
Waning Gibbous, 90% of the Moon is Illuminated
Feb 28
Waning Gibbous
Mar 4
Last Quarter
Mar 11
New
Mar 19
First Quarter
Mar 27
Full

Hourly Weather History & Observations

Time (MST) Temp. Windchill Dew Point Humidity Pressure Visibility Wind Dir Wind Speed Gust Speed Precip Events Conditions
12:53 AM 19.9 °F 12.1 °F 10.0 °F 65% 30.34 in 10.0 mi East 5.8 mph - N/A   Clear
2:53 AM 16.0 °F - 5.0 °F 62% 30.35 in 10.0 mi Calm Calm - N/A   Clear
3:53 AM 16.0 °F - 5.0 °F 62% 30.35 in 10.0 mi Calm Calm - N/A   Clear
5:53 AM 10.9 °F - 5.0 °F 77% 30.42 in 10.0 mi Calm Calm - N/A   Clear
7:53 AM 14.0 °F - 7.0 °F 74% 30.47 in 10.0 mi Calm Calm - N/A   Clear
8:53 AM 21.9 °F - 8.1 °F 55% 30.45 in 10.0 mi Calm Calm - N/A   Clear
9:53 AM 25.0 °F 19.3 °F 8.1 °F 49% 30.45 in 10.0 mi East 4.6 mph - N/A   Clear
10:53 AM 30.9 °F - 6.1 °F 35% 30.43 in 10.0 mi Calm Calm - N/A   Clear
11:53 AM 34.0 °F 26.6 °F 7.0 °F 32% 30.41 in 10.0 mi WSW 9.2 mph 17.3 mph N/A   Clear
12:53 PM 36.0 °F 29.0 °F 10.0 °F 34% 30.37 in 10.0 mi WSW 9.2 mph - N/A   Clear
1:53 PM 39.9 °F 33.9 °F 12.0 °F 32% 30.33 in 10.0 mi WSW 9.2 mph - N/A   Clear
2:53 PM 41.0 °F 34.3 °F 12.0 °F 31% 30.32 in 10.0 mi SW 11.5 mph - N/A   Clear
3:53 PM 43.0 °F 38.2 °F 10.9 °F 27% 30.30 in 10.0 mi SW 8.1 mph 16.1 mph N/A   Clear
4:53 PM 41.0 °F 34.7 °F 14.0 °F 33% 30.31 in 10.0 mi WSW 10.4 mph - N/A   Clear
5:53 PM 39.0 °F 33.4 °F 12.0 °F 33% 30.35 in 10.0 mi West 8.1 mph - N/A   Clear
6:53 PM 35.1 °F 30.1 °F 12.9 °F 40% 30.40 in 10.0 mi WNW 5.8 mph - N/A   Clear
7:53 PM 34.0 °F 31.0 °F 10.9 °F 38% 30.39 in 10.0 mi Variable 3.5 mph - N/A   Clear
8:30 PM 35.6 °F 27.1 °F 8.6 °F 33% 30.26 in 10.0 mi NW 12.7 mph 23.0 mph N/A   Clear
8:53 PM 32.0 °F 25.6 °F 12.0 °F 44% 30.40 in 10.0 mi SSW 6.9 mph - N/A   Clear
9:53 PM 32.0 °F 27.5 °F 10.0 °F 40% 30.38 in 10.0 mi SW 4.6 mph - N/A   Clear
10:53 PM 35.1 °F 25.9 °F 10.0 °F 35% 30.35 in 10.0 mi NW 13.8 mph - N/A   Clear
11:53 PM 34.0 °F 23.0 °F 10.9 °F 38% 30.34 in 10.0 mi NW 18.4 mph - N/A   Clear